Location: Freiburg+im+Breisgau
(48.0359°N, 7.8195°E)
Time: 19:47:08
(UTC+01:00)

ISS - Pass Details

Date: 17 November 2017
Orbit: 401 x 407 km, 51.6° (Epoch: 25 November)

Event Time Altitude Azimuth Distance (km) Brightness Sun altitude
Exits shadow 04:48:36 13° 127° (SE) 1,291 -0.7 -28.1°
Drops below altitude 10° 04:48:59 10° 126° (SE) 1,450 -0.4 -28.1°
Sets 04:51:04 0° 123° (ESE) 2,306 0.8 -27.7°
